Regional Weather Roundup
Issued by NWS Newport/Morehead, NC

Current Version | Previous Version | Text Only | Print | Product List | Glossary On
Versions: 1 2 3 4 5 6 7 8 9 10 11 12 13 14 15 16 17 18 19 20 21 22 23 24 25 26 27 28 29 30 31 32 33 34 35 36 37 38 39 40 41 42 43 44 45 46 47 48 49 50
000
ASUS42 KMHX 152210
RWRMHX
WEATHER ROUNDUP FOR EASTERN NORTH CAROLINA
NATIONAL WEATHER SERVICE NEWPORT/MOREHEAD CITY NC
600 PM EDT TUE APR 15 2014

NOTE: "FAIR" INDICATES FEW OR NO CLOUDS BELOW 12,000 FEET
WITH NO SIGNIFICANT WEATHER AND/OR OBSTRUCTIONS TO VISIBILITY

NCZ015>017-031-032-045>047-102-103-152300-
NORTH COAST

CITY           SKY/WX    TMP DP  RH WIND       PRES   REMARKS
EDENTON        CLOUDY    71  64  77 S22G29    29.66R
ELIZABETH CITY LGT RAIN  71  63  75 S14G29    29.66S
KITTY HAWK     LGT RAIN  69  65  85 S9G17     29.69F
MANTEO         RAIN      68  65  88 SW17      29.71S

$$

NCZ045>047-081-094-103-104-152300-
CENTRAL COAST

CITY           SKY/WX    TMP DP  RH WIND       PRES   REMARKS
FRISCO         CLOUDY    69  65  86 S13       29.75S FOG
SWANQUARTER      N/A     70 N/A N/A S12G21    29.65F

$$

NCZ095-097-098-100-101-152300-
SOUTHERN COAST

CITY           SKY/WX    TMP DP  RH WIND       PRES   REMARKS
BEAUFORT       LGT RAIN  68  64  87 S17       29.70F
CEDAR ISLAND     N/A     70 N/A N/A S16G23    29.77S
JACKSONVILLE   CLOUDY    70  68  93 S14G26    29.69R
NEWPORT          N/A     68  64  88 S12G22      N/A
PINEY ISLAND   LGT RAIN  71  67  87 S22G30    29.68F FOG
WILMINGTON     CLOUDY    71  64  78 S16G26    29.69S


$$

NCZ011>013-027>030-043-044-078>080-089-090>093-098-152300-
COASTAL PLAIN

CITY           SKY/WX    TMP DP  RH WIND       PRES   REMARKS
AHOSKIE        CLOUDY    71  64  78 S12G22    29.62S
CLINTON        CLOUDY    71  66  85 S8        29.64S
ELIZABETHTOWN  CLOUDY    71  65  82 S8G16     29.65S
GOLDSBORO      CLOUDY    72  66  83 S14G22    29.62S
GREENVILLE     CLOUDY    72  64  78 S14       29.68S
HAVELOCK       CLOUDY    68  64  87 S15G22    29.70R
KENANSVILLE    CLOUDY    70  63  78 S7        29.67R
KINSTON        CLOUDY    72  64  78 S15G23    29.66R
NEW BERN       CLOUDY    70  66  87 S15G24    29.69S
RICHLANDS      CLOUDY    72  63  73 S18G28    29.68R
ROANOKE RAPIDS NOT AVBL
ROCKY MOUNT      N/A    N/A N/A N/A MISG      29.62S
WASHINGTON     CLOUDY    73  67  81 S13G20    29.66R
WHITEVILLE     CLOUDY    72  65  78 S14       29.65S

$$

AMZ130-135-150-152-154-156-158-170-250-252-270-ANZ085-086-088-633-658-670-152300-
MARINE OBSERVATIONS

STATION/POSITION TIME  TEMP    WIND        PRES    WAVE   SWELL
                       AIR SEA DIR/SP/G            HT/PER HT/PER
                 (UTC) (F)     (DEG/KT/KT) (MB)    (FT/S) (FT/S)
CHESAPEAKE LIGHT 2100   57     180/ 32/ 33 1002.7
BUOY 44014       2200   61 53  170/ 17/ 21 1005.7   10/ 9   7/ 9
DUCK             2200   70 48  190/ 18/ 25 1004.2
2E DUCK          2200      48                N/A     5/ 8
OREGON INLET     2200   69 71  180/ 18/ 24 1006.2
BUOY 44095       2200      65                N/A     7/ 8   2/11
HATTERAS CG      2200   69 66  170/  8/ 15 1007.6
DIAMOND BUOY     NOT AVBL
CAPE LOOKOUT     2100   67     180/ 14/ 15 1007.0
BEAUFORT LAB     2200   67 66  190/ 19/ 21 1005.3
30 SE NEW RIVER  2200   68 63  180/ 21/ 27 1005.8    7/ 8   5/ 8
5 SE WRIGHTSVILL 2100   65 62  200/ 17/ 21 1005.6
FRYING PAN BUOY  2200   69 66  180/ 19/ 21 1006.0    7/ 8   3/14
BUOY 41001       NOT AVBL
BUOY 41002       NOT AVBL
BUOY 41004       NOT AVBL

$$



USA.gov is the U.S. government's official web portal to all federal, state and local government web resources and services.